Location: Barrio Venta de las Veguillas
(40.3188°N, 5.5811°W)
Time: 17:36:08
(UTC+00:00)

Daily predictions for brighter satellites

Satellite Brightness Start Highest point End
(mag) Time Altitude Azimuth Time Altitude Azimuth Time Altitude Azimuth
NOSS 3-1 (A) 4.5 20:17:51 10° NW 20:25:37 71° WSW 20:34:23 10° SSE
Cosmos 2285 Rocket 4.3 20:19:38 10° NNW 20:25:55 70° WSW 20:32:09 10° S
Cosmos 1356 Rocket 3.6 20:22:38 10° NNW 20:26:55 78° W 20:31:05 10° S
Cosmos 1602 Rocket 4.0 20:23:08 10° SSE 20:27:17 43° E 20:31:30 10° NNE
CZ-2C R/B 3.8 20:23:34 10° NNE 20:28:20 70° ESE 20:33:05 10° S
Cosmos 372 Rocket 4.5 20:26:12 10° NNW 20:31:23 64° WSW 20:36:33 10° S
Atlas Centaur 2 3.2 20:27:03 10° SW 20:31:50 30° S 20:37:41 10° ESE
Cosmos 2263 Rocket 2.5 20:27:29 10° NNW 20:33:01 70° WSW 20:38:32 10° SSE
Cosmos 2219 Rocket 3.7 20:31:52 10° SE 20:35:00 15° E 20:38:08 10° ENE
Cosmos 2360 Rocket 2.4 20:31:04 10° S 20:36:27 49° ESE 20:41:52 10° NE
Cosmos 1626 4.2 20:33:27 10° SW 20:36:45 30° WNW 20:40:04 10° NNW
FALCON 9 R/B 2.4 20:37:54 10° WSW 20:39:42 16° SSW 20:41:10 10° SSE
IRIS 4.1 20:36:09 10° WSW 20:39:55 67° SSE 20:42:29 10° E
Meteor 2-16 Rocket 4.4 20:34:07 10° S 20:40:10 75° E 20:46:15 10° NNE
Cosmos 2333 Rocket 3.5 20:40:31 10° SSE 20:44:37 21° E 20:48:47 10° NE
Resurs 01 Rocket 1.6 20:46:09 10° SSE 20:50:32 70° ENE 20:54:57 10° N
Cosmos 1818 3.5 20:46:07 10° SSW 20:51:29 71° ESE 20:56:55 10° NE
SL-16 R/B 3.2 20:49:49 10° SW 20:55:18 50° WNW 21:00:50 10° NNE
Cosmos-2242 4.2 20:52:30 10° NNE 20:56:15 27° ENE 20:59:06 15° SE
CZ-2C R/B 3.5 20:51:14 10° N 20:56:29 54° WNW 21:01:36 10° SSW
ERS-1 Rocket 4.4 20:56:51 12° ESE 21:00:20 23° ENE 21:04:15 10° NNE
GEOS 3 Rocket 3.7 21:01:22 10° NE 21:06:44 64° ESE 21:12:03 10° SSW
ATLAS 5 CENTAUR R/B 1.4 21:04:14 10° SSW 21:08:17 89° ESE 21:12:46 10° NE
Cosmos 2278 Rocket 4.4 21:06:25 10° NNE 21:08:35 12° NE 21:10:45 10° ENE
USA 215 3.4 21:04:02 10° NE 21:10:23 51° SE 21:16:41 10° SSW
USA 245 3.6 21:08:35 20° SE 21:10:26 41° ENE 21:14:07 10° N
Cosmos 1758 Rocket 3.6 21:08:17 10° S 21:12:44 67° E 21:17:13 10° NNE
Cosmos 1844 Rocket 3.0 21:08:53 10° NNW 21:14:21 53° ENE 21:18:16 19° SE
Cosmos 1400 Rocket 3.4 21:11:48 10° N 21:15:35 40° ENE 21:17:42 22° SE
SPOT 5 4.1 21:13:56 16° ESE 21:16:55 28° ENE 21:21:01 10° N
Meteor 2-10 Rocket 3.6 21:13:40 10° NNW 21:18:49 82° W 21:23:40 12° S
Spot 2 Rocket 3.6 21:16:44 17° SSE 21:20:37 67° ENE 21:25:41 10° N
OAO 3 Rocket 3.8 21:16:37 10° WSW 21:21:13 41° S 21:23:58 22° SE
Landsat 7 3.9 21:21:48 19° SSE 21:25:07 68° ENE 21:29:52 10° N
BREEZE M DEB (TANK) 3.8 21:24:08 10° NW 21:26:23 22° NNE 21:27:38 14° ENE
Cosmos 1745 Rocket 4.4 21:23:55 10° SSW 21:30:03 66° W 21:36:17 10° N
SPOT 1/Viking Rocket 3.5 21:31:53 22° SSE 21:35:12 70° ENE 21:40:21 10° N
Cosmos 1953 Rocket 3.5 21:33:11 22° S 21:35:52 63° E 21:40:09 10° NNE
Cosmos 1328 4.0 21:37:16 14° SSW 21:40:40 71° W 21:44:38 10° N
Cosmos 2322 Rocket 4.4 21:38:11 10° WSW 21:42:50 26° NW 21:47:31 10° N
OAO 2 Rocket 3.7 21:40:52 10° WSW 21:45:57 47° S 21:48:29 27° ESE
SAR-Lupe-2 3.5 21:42:22 10° NNE 21:45:58 89° WNW 21:47:57 25° SSW
Cosmos 1455 3.4 21:45:27 10° NNW 21:49:01 38° W 21:51:42 16° SSW
Cosmos 1825 Rocket 4.2 21:47:19 11° SSW 21:51:34 55° W 21:55:58 10° N
Cosmos 1703 4.5 21:50:49 10° SSW 21:54:27 40° WNW 21:58:08 10° N
ATLAS CENTAUR R/B 2.4 21:54:14 10° N 21:57:27 28° NE 21:58:26 24° ENE
Alouette 2 Rocket 4.0 21:57:00 10° NNW 22:00:59 67° W 22:03:55 26° S
COSMOS 2428 2.6 21:57:26 14° SSW 22:02:25 79° ESE 22:08:07 10° NNE
CZ-4B DEB 4.5 22:01:43 48° SSW 22:02:28 68° W 22:05:49 10° NNW
Delta 2 Rocket 4.2 22:03:03 10° WSW 22:05:02 26° SW 22:05:02 26° SW
Cosmos 2322 4.3 22:00:44 10° SW 22:06:21 58° WNW 22:12:01 10° NNE
Cosmos 1844 3.9 22:02:58 10° NNW 22:08:43 68° WSW 22:11:25 32° S
Cosmos 1869 4.2 22:05:25 10° NNE 22:09:03 32° ENE 22:09:22 32° E
NOSS 0 Rocket 4.2 22:07:31 32° SSE 22:09:52 47° ESE 22:15:44 10° NE
CARTOSAT-1 3.6 22:10:04 40° S 22:11:33 74° WSW 22:15:53 10° NNW
Terra 1.8 22:10:34 41° SE 22:12:05 67° ENE 22:16:50 10° N
Meteor 1-27 4.2 22:09:53 10° N 22:15:39 82° E 22:18:05 37° SSE
Cosmos 2237 Rocket 2.7 22:14:58 36° SE 22:15:55 38° ESE 22:21:09 10° NE
BREEZE-M DEB (TANK) 3.6 22:14:36 10° WNW 22:17:53 45° SW 22:18:37 40° S
Cosmos 2344 4.0 22:16:02 31° SE 22:18:10 37° ESE 22:25:00 10° NE
Cosmos 2219 Rocket 2.4 22:12:43 10° SSW 22:18:16 69° WNW 22:23:52 10° NNE
Cosmos 1538 Rocket 4.2 22:15:17 16° SSW 22:19:33 72° WNW 22:24:54 10° NNE
Atlas Centaur 2 3.2 22:14:52 10° WSW 22:20:29 34° S 22:21:21 33° S
Cosmos 2360 Rocket 4.4 22:16:07 10° WSW 22:20:42 25° NW 22:25:19 10° N
NOSS 3-3 (A) 4.1 22:15:08 10° SW 22:20:52 71° NW 22:27:21 10° NNE
NOSS 3-3 (C) 4.1 22:15:13 10° SW 22:20:59 72° NW 22:27:28 10° NNE
BREEZE-M R/B 4.1 22:10:43 10° WNW 22:21:15 83° NNE 22:23:36 36° ESE
DELTA 2 R/B (1) 3.5 22:20:49 10° WSW 22:26:17 58° SSE 22:30:03 20° E
Cosmos 2333 Rocket 2.9 22:22:53 10° SW 22:28:25 53° WNW 22:34:02 10° NNE
Cosmos 1315 Rocket 2.9 22:25:11 10° NNW 22:29:17 74° W 22:29:55 59° SSW
Cosmos 2184 Rocket 3.9 22:27:11 37° S 22:29:48 76° E 22:36:06 10° N
Thor Agena Rocket 4.2 22:28:35 10° NNE 22:33:13 35° E 22:33:18 34° E
Meteor 2-2 Rocket 4.3 22:28:29 10° N 22:34:17 68° E 22:35:55 46° SE
ERS-1 Rocket 3.9 22:36:52 29° SSW 22:38:51 41° W 22:43:37 10° NNW
Cosmos 2221 2.4 22:34:32 10° N 22:38:56 79° E 22:39:20 71° SE
BREEZE-M DEB (TANK) 4.4 22:35:18 10° WNW 22:39:03 21° N 22:41:16 10° NE
Cosmos 1892 2.9 22:41:59 59° NE 22:41:59 59° NE 22:45:18 10° NNE
ATLAS 2AS CENTAUR R/B 3.7 22:35:19 10° NNW 22:42:22 40° NE 22:46:25 22° E
Cosmos 2112 Rocket 4.1 22:48:24 55° SE 22:48:58 59° ESE 22:54:14 10° NNE
Cosmos 158 Rocket 3.7 22:52:56 67° SE 22:53:12 68° ESE 22:58:03 10° NNE
USA 215 4.1 22:47:04 10° NE 22:53:20 50° NNW 22:59:35 10° WSW
Cosmos 2278 Rocket 2.2 22:48:01 10° NNW 22:53:43 72° ENE 22:54:59 53° SE
SPOT 5 4.2 22:53:10 27° SW 22:54:51 33° W 22:59:16 10° NNW
Cosmos 1844 Rocket 4.5 22:53:49 10° NW 22:57:46 20° W 22:59:56 16° SW
Spot 4 4.2 22:59:07 47° E 22:59:33 48° ENE 23:04:09 10° N
SL-16 R/B 3.1 23:00:46 31° E 23:00:46 31° E 23:05:16 10° NE
Cosmos 2058 3.0 23:01:10 71° W 23:01:13 71° W 23:05:22 10° N
Cosmos 1408 3.5 23:03:24 43° NNE 23:03:24 43° NNE 23:05:56 10° NNE
Gblst 52 Del rocket 4.4 22:59:17 10° NW 23:05:09 77° NE 23:07:27 42° ESE
Cosmos 2056 Rocket 4.3 23:01:50 10° N 23:06:57 41° ENE 23:07:58 37° E
Cosmos 2154 Rocket 3.9 23:07:50 48° SSW 23:09:41 83° W 23:15:55 10° N
Nadezhda 3 Rocket 3.9 23:05:58 10° N 23:12:23 88° E 23:13:54 55° S
Cosmos 2341 Rocket 4.1 23:11:47 51° SE 23:12:49 57° E 23:18:53 10° NNE
Cosmos 1076 Rocket 3.8 23:12:54 59° W 23:13:01 60° W 23:17:16 10° N
Cosmos 1680 Rocket 3.7 23:15:58 48° SW 23:17:20 66° WNW 23:22:39 10° NNE
TSX-5 4.3 23:16:55 10° NNW 23:19:55 56° NW 23:19:55 56° NW
Cosmos 2151 3.3 23:23:52 60° NE 23:23:52 60° NE 23:27:29 10° NNE
USA 267 3.2 23:21:24 44° ESE 23:23:43 83° NE 23:30:19 10° NW
SL-8 Rocket 4.0 23:30:59 55° SE 23:31:46 60° E 23:37:49 10° NNE
Cosmos 1825 3.1 23:32:56 47° NNW 23:32:56 47° NNW 23:35:45 10° N
BREEZE-M DEB (TANK) 3.8 23:30:08 10° WNW 23:32:45 27° WNW 23:32:45 27° WNW
ALOS 2 3.1 23:35:27 52° NE 23:35:27 52° NE 23:39:22 10° N
ATLAS CENTAUR R/B 3.5 23:33:24 10° WNW 23:34:36 16° W 23:34:36 16° W
Cosmos 1151 Rocket 3.9 23:36:31 10° N 23:40:03 41° NE 23:40:03 41° NE
IRIDIUM 103 4.5 23:41:42 59° E 23:41:42 59° E 23:46:50 10° N
Cosmos 44 3.5 23:43:37 55° NNE 23:43:37 55° NNE 23:47:05 10° NNE
Cosmos 2369 Rocket 4.2 23:41:52 10° N 23:45:51 19° NE 23:48:49 13° E
GP-B 3.4 23:45:03 10° N 23:48:50 61° NNE 23:48:50 61° NNE
Cosmos 371 Rocket 4.0 23:45:39 10° N 23:50:16 42° ENE 23:50:25 42° ENE
Terra 4.2 23:49:27 12° W 23:50:17 12° W 23:52:07 10° WNW
